Home > Weather > Küssnacht > Past weeks

Flag for Switzerland Past Weather in Küssnacht, Schwyz, Switzerland — Yesterday and Last 2 Weeks

Now
70 °F

Mild.


Feels Like: 73 °F
Forecast: 50 / 63 °F
Wind: 3 mph from Northwest

Location: Altdorf

Current Time: Jul 23, 2016 at 1:21:20 PM

Latest Report: Jul 23, 2016 at 12:00 PM


Visibility: N/A

Pressure: 30.03 "Hg

Humidity: 74%

Dew Point: 62 °F

Location of KüssnachtLocation

Past Weather in Küssnacht — Graph

°F

Küssnacht Temperature Yesterday

Maximum temperature yesterday: 74 °F (at 4:00 PM)
Minimum temperature yesterday: 64 °F (at 11:00 PM)
Average temperature yesterday: 69 °F

High & Low Weather Summary for the Past Weeks

 TemperatureHumidityPressure
High88 °F (Jul 20, 6:00 PM)96% (Jul 23, 5:00 AM)30.38 "Hg (Jul 23, 5:00 AM)
Low45 °F (Jul 16, 5:00 AM)35% (Jul 20, 6:00 PM)29.84 "Hg (Jul 10, 7:00 PM)
Average66 °F76%30.08 "Hg
* Reported Jul 8 12:00 PM — Jul 23 12:00 PM, Küssnacht, Weather by CustomWeather, © 2016

Note: Actual official high and low records may vary slightly from our data, if they occured in-between our weather recording intervals... More about our weather records

Advertising

Küssnacht Weather History for the Previous 24 Hours

Scroll right to see more
 ConditionsComfort  
Time TempWeatherWind HumidityBarometerVisibility
12:00 PM
Sat, Jul 23
70 °FMild.3 mph74%30.03 "HgN/A
11:00 AM69 °FOvercast.2 mph76%30.03 "Hg12 mi
10:00 AM68 °FMild.2 mph77%30.02 "HgN/A
9:00 AM65 °FMild.3 mph83%30.03 "HgN/A
8:00 AM62 °FPartly sunny.No wind88%30.03 "Hg16 mi
7:00 AM61 °FCool.2 mph92%30.05 "HgN/A
6:00 AM61 °FCool.3 mph94%30.05 "HgN/A
5:00 AM60 °FPassing clouds.2 mph96%30.05 "Hg16 mi
4:00 AM61 °FCool.No wind95%30.04 "HgN/A
3:00 AM62 °FCool.1 mph94%30.03 "HgN/A
2:00 AM62 °FCool.1 mph91%30.04 "HgN/A
1:00 AM62 °FCool.1 mph92%30.03 "HgN/A
12:00 AM63 °FMild.5 mph92%30.03 "HgN/A
11:00 PM
Fri, Jul 22
64 °FRain. Overcast.12 mph89%30.04 "Hg9 mi
10:00 PM65 °FMild.10 mph88%30.05 "HgN/A
9:00 PM67 °FMild.8 mph90%30.02 "HgN/A
8:00 PM67 °FOvercast.10 mph93%29.99 "Hg9 mi
7:00 PM70 °FMild.No wind86%29.96 "HgN/A
6:00 PM71 °FMild.3 mph82%29.95 "HgN/A
5:00 PM70 °FOvercast.6 mph85%29.96 "Hg9 mi
4:00 PM74 °FMild.13 mph71%29.94 "HgN/A
3:00 PM74 °FMild.10 mph74%29.93 "HgN/A
2:00 PM73 °FThundershowers. Low clouds.3 mph83%29.93 "Hg1 mi
1:00 PM70 °FMild.8 mph85%29.96 "HgN/A
Weather by CustomWeather, © 2016

See weather overviewHow to use our weather pages